Weather History for KCTB - April, 2013

Change the Weather History Date:

Sunday, April 21, 2013

  Actual Average Record
Temperature  
Mean Temperature 21 °F 42 °F  
Max Temperature 27 °F 55 °F 78 °F (1911)
Min Temperature 14 °F 30 °F 2 °F (1951)
Degree Days  
Heating Degree Days 44 22  
Month to date heating degree days 635 531  
Since 1 July heating degree days 7429 7629  
Cooling Degree Days 0 0  
Month to date cooling degree days 0 0  
Year to date cooling degree days 0 0  
Moisture  
Dew Point 18 °F    
Average Humidity 78    
Maximum Humidity 92    
Minimum Humidity 63    
Precipitation  
Precipitation T in 0.03 in 0.37 in (1940)
Month to date precipitation 0.61 0.48  
Year to date precipitation 1.91 1.39  
Snow  
Snow 0.00 in - - ()
Snow Depth 2.00 in    
Sea Level Pressure  
Sea Level Pressure 30.25 in    
Wind  
Wind Speed 10 mph (North)    
Max Wind Speed 20 mph    
Max Gust Speed 22 mph    
Visibility 6 miles    
Events Snow    
T = Trace of Precipitation, MM = Missing Value Source: NWS Daily Summary

Daily Weather History Graph

Daily Weather History Graph

Search for Another Location

Airport or City:

Trip Planner

Search our weather history database for the weather conditions in past years. The results will help you decide how hot, cold, wet, or windy it might be!

Date:

Astronomy

Apr. 21, 2013 Rise Set
Actual Time 6:26 AM MDT 8:30 PM MDT
Civil Twilight 5:53 AM MDT 9:04 PM MDT
Nautical Twilight 5:11 AM MDT 9:46 PM MDT
Astronomical Twilight 4:24 AM MDT 10:33 PM MDT
Moon 4:00 PM MDT (4/21) 4:12 AM MDT (4/21)
Length of Visible Light 15h 11m
Length of Day
14h 03m
Waxing Gibbous, 80% of the Moon is Illuminated
Apr 21
Waxing Gibbous
Apr 25
Full
May 2
Last Quarter
May 9
New
May 17
First Quarter

Hourly Weather History & Observations

Time (MDT) Temp. Windchill Dew Point Humidity Pressure Visibility Wind Dir Wind Speed Gust Speed Precip Events Conditions
12:07 AM 26.6 °F 15.2 °F 24.8 °F 93% 30.09 in 4.0 mi North 13.8 mph - 0.00 in Snow Light Snow
12:28 AM 26.6 °F 14.7 °F 23.0 °F 86% 30.10 in 10.0 mi North 15.0 mph - 0.00 in   Overcast
12:56 AM 26.1 °F 13.6 °F 23.0 °F 88% 30.15 in 10.0 mi NNW 16.1 mph - 0.00 in   Overcast
1:56 AM 25.0 °F 12.6 °F 21.0 °F 85% 30.17 in 10.0 mi NNW 15.0 mph - N/A   Overcast
2:56 AM 24.1 °F 13.1 °F 19.9 °F 84% 30.19 in 10.0 mi NW 11.5 mph - N/A   Overcast
3:56 AM 23.0 °F 13.1 °F 19.9 °F 88% 30.22 in 10.0 mi NNW 9.2 mph - N/A   Overcast
4:49 AM 23.0 °F 13.9 °F 19.4 °F 86% 30.16 in 10.0 mi NNW 8.1 mph - N/A   Overcast
4:56 AM 24.1 °F 14.4 °F 19.9 °F 84% 30.24 in 10.0 mi NNW 9.2 mph - N/A   Overcast
5:29 AM 23.0 °F 13.1 °F 19.4 °F 86% 30.17 in 10.0 mi North 9.2 mph - N/A   Overcast
5:38 AM 23.0 °F 13.9 °F 19.4 °F 86% 30.17 in 10.0 mi NNE 8.1 mph - N/A   Overcast
5:56 AM 23.0 °F 14.7 °F 19.9 °F 88% 30.27 in 9.0 mi North 6.9 mph - N/A   Overcast
6:21 AM 23.0 °F 12.4 °F 19.4 °F 86% 30.17 in 2.0 mi North 10.4 mph - 0.00 in Snow Light Snow
6:41 AM 23.0 °F 11.1 °F 19.4 °F 86% 30.17 in 5.0 mi North 12.7 mph - 0.00 in   Overcast
6:56 AM 21.9 °F 8.7 °F 19.0 °F 89% 30.30 in 6.0 mi North 15.0 mph - 0.00 in   Overcast
7:07 AM 21.2 °F 8.3 °F 19.4 °F 93% 30.18 in 2.0 mi North 13.8 mph - 0.00 in Snow Light Snow
7:15 AM 21.2 °F 7.8 °F 19.4 °F 93% 30.18 in 1.5 mi North 15.0 mph - 0.00 in Snow Light Snow
7:33 AM 21.2 °F 8.3 °F 19.4 °F 93% 30.18 in 3.0 mi North 13.8 mph - 0.00 in   Overcast
7:48 AM 21.2 °F 6.8 °F 17.6 °F 86% 30.19 in 4.0 mi North 17.3 mph - 0.00 in   Overcast
7:56 AM 21.9 °F 8.2 °F 18.0 °F 85% 30.31 in 3.0 mi North 16.1 mph - 0.00 in   Overcast
8:04 AM 21.2 °F 7.3 °F 19.4 °F 93% 30.20 in 2.5 mi North 16.1 mph - N/A   Overcast
8:11 AM 21.2 °F 7.3 °F 19.4 °F 93% 30.20 in 3.0 mi North 16.1 mph - 0.00 in Snow Light Snow
8:43 AM 21.2 °F 8.3 °F 17.6 °F 86% 30.20 in 7.0 mi NNE 13.8 mph - 0.00 in   Overcast
8:56 AM 21.9 °F 8.7 °F 17.1 °F 82% 30.33 in 10.0 mi North 15.0 mph - 0.00 in   Overcast
9:38 AM 21.2 °F 9.5 °F 17.6 °F 86% 30.21 in 10.0 mi NNE 11.5 mph - N/A   Overcast
9:45 AM 21.2 °F 8.9 °F 15.8 °F 80% 30.21 in 10.0 mi NNE 12.7 mph - N/A   Overcast
9:56 AM 21.9 °F 10.4 °F 15.1 °F 75% 30.34 in 10.0 mi North 11.5 mph - N/A   Overcast
10:11 AM 21.2 °F 7.8 °F 15.8 °F 80% 30.20 in 10.0 mi North 15.0 mph - N/A   Overcast
10:47 AM 23.0 °F 11.1 °F 15.8 °F 74% 30.21 in 6.0 mi North 12.7 mph - N/A   Haze
10:56 AM 23.0 °F 11.1 °F 17.1 °F 78% 30.34 in 3.0 mi NNE 12.7 mph - 0.00 in Snow Light Snow
11:01 AM 23.0 °F 11.1 °F 17.6 °F 80% 30.21 in 1.8 mi NNE 12.7 mph - 0.00 in Snow Light Snow
11:18 AM 21.2 °F 8.3 °F 17.6 °F 86% 30.21 in 2.5 mi NNE 13.8 mph - 0.00 in Snow Light Snow
11:56 AM 23.0 °F 11.7 °F 18.0 °F 81% 30.34 in 1.8 mi NNE 11.5 mph - 0.00 in Snow Light Snow
12:17 PM 23.0 °F 10.6 °F 17.6 °F 80% 30.21 in 0.8 mi NNE 13.8 mph 19.6 mph 0.00 in Snow Light Snow
12:19 PM 23.0 °F 11.1 °F 17.6 °F 80% 30.21 in 1.0 mi NNE 12.7 mph - 0.00 in Snow Light Snow
12:39 PM 24.8 °F 12.9 °F 17.6 °F 74% 30.21 in 2.5 mi NNE 13.8 mph - 0.00 in Snow Light Snow
12:51 PM 24.8 °F 15.3 °F 17.6 °F 74% 30.21 in 4.0 mi North 9.2 mph - 0.00 in Snow Light Snow
12:56 PM 24.1 °F 15.2 °F 18.0 °F 77% 30.34 in 5.0 mi NNE 8.1 mph - 0.00 in Snow Light Snow
1:18 PM 24.8 °F 14.0 °F 17.6 °F 74% 30.21 in 2.5 mi NNE 11.5 mph - 0.00 in Snow Light Snow
1:34 PM 23.0 °F 13.1 °F 17.6 °F 80% 30.21 in 1.5 mi North 9.2 mph - 0.00 in Snow Light Snow
1:41 PM 24.8 °F 14.6 °F 17.6 °F 74% 30.21 in 3.0 mi North 10.4 mph - 0.00 in Snow Light Snow
1:56 PM 25.0 °F 15.5 °F 18.0 °F 75% 30.35 in 4.0 mi North 9.2 mph - 0.00 in Snow Light Snow
2:05 PM 24.8 °F 15.3 °F 17.6 °F 74% 30.22 in 2.5 mi North 9.2 mph - 0.00 in Snow Light Snow
2:12 PM 24.8 °F 16.1 °F 17.6 °F 74% 30.22 in 4.0 mi NNE 8.1 mph - 0.00 in Snow Light Snow
2:21 PM 26.6 °F 16.8 °F 17.6 °F 69% 30.22 in 7.0 mi North 10.4 mph - 0.00 in Snow Light Snow
2:33 PM 24.8 °F 15.3 °F 17.6 °F 74% 30.22 in 2.0 mi North 9.2 mph - 0.00 in Snow Light Snow
2:56 PM 25.0 °F 13.1 °F 17.1 °F 72% 30.35 in 5.0 mi North 13.8 mph - 0.00 in Snow Light Snow
3:47 PM 24.8 °F 14.6 °F 15.8 °F 69% 30.23 in 9.0 mi NNE 10.4 mph - 0.00 in   Overcast
3:56 PM 25.0 °F 15.5 °F 16.0 °F 69% 30.36 in 10.0 mi North 9.2 mph - 0.00 in   Overcast
4:56 PM 26.6 °F 16.2 °F 15.8 °F 64% 30.22 in 10.0 mi North 11.5 mph - N/A   Overcast
5:54 PM 24.8 °F 14.6 °F 19.4 °F 80% 30.23 in 2.5 mi North 10.4 mph - 0.00 in Snow Light Snow
5:56 PM 25.0 °F 15.5 °F 19.9 °F 81% 30.37 in 2.0 mi NNE 9.2 mph - 0.00 in Snow Light Snow
6:04 PM 24.8 °F 17.9 °F 19.4 °F 80% 30.23 in 3.0 mi NE 5.8 mph - 0.00 in Snow Light Snow
6:56 PM 24.1 °F 14.4 °F 19.9 °F 84% 30.38 in 2.5 mi North 9.2 mph - 0.00 in Snow Light Snow
7:05 PM 24.8 °F 16.9 °F 17.6 °F 74% 30.24 in 9.0 mi North 6.9 mph - 0.00 in   Overcast
7:47 PM 24.8 °F 14.0 °F 19.4 °F 80% 30.25 in 1.5 mi North 11.5 mph - 0.00 in Snow Light Snow
7:56 PM 24.1 °F 18.2 °F 19.9 °F 84% 30.40 in 1.0 mi NNW 4.6 mph - 0.00 in Snow Light Snow
8:02 PM 24.8 °F 17.9 °F 19.4 °F 80% 30.25 in 3.0 mi North 5.8 mph - 0.00 in Snow Light Snow
8:10 PM 24.8 °F 16.1 °F 19.4 °F 80% 30.25 in 8.0 mi North 8.1 mph - 0.00 in Snow Light Snow
8:56 PM 24.1 °F 15.2 °F 19.9 °F 84% 30.41 in 10.0 mi North 8.1 mph - 0.00 in   Overcast
9:56 PM 24.1 °F 16.0 °F 19.9 °F 84% 30.44 in 10.0 mi North 6.9 mph - N/A   Overcast
10:56 PM 21.9 °F 11.7 °F 19.0 °F 89% 30.45 in 10.0 mi NNW 9.2 mph - N/A   Overcast
11:56 PM 18.0 °F 5.4 °F 12.9 °F 81% 30.46 in 10.0 mi NNW 11.5 mph - N/A   Clear